When you browse on this site, cookies collect data to enhance your experience and personalize the content and advertising you see.
Visit our Privacy Policy to learn more. By continuing to use the site, you agree to this use of cookies and data.
  • In Hungary
  • List of Countries
  • For 7 days
  • Water Temperature
  • Weather Map
  • News
  • Weather Widgets
  • user-avatar
    Login

    Hourly Weather El Cocuy

    Today, 12 December, Thursday

    Time Temperature Precipitation Wind Pressure Humidity
    00:00 +8°C° 0 mm 0 mps 539 mmHg 93%
    01:00 +9°C° 0 mm 1 mps 539 mmHg 92%
    02:00 +9°C° 0 mm 1 mps 539 mmHg 93%
    03:00 +9°C° 0 mm 1 mps 539 mmHg 93%
    04:00 +9°C° 0 mm 1 mps 539 mmHg 93%
    05:00 +10°C° 0 mm 1 mps 540 mmHg 91%
    06:00 +10°C° 0 mm 0 mps 541 mmHg 90%
    07:00 +11°C° 0 mm 0 mps 541 mmHg 88%
    08:00 +13°C° 0 mm 1 mps 542 mmHg 84%
    09:00 +15°C° 0 mm 1 mps 543 mmHg 80%
    10:00 +16°C° 0 mm 1 mps 544 mmHg 77%
    11:00 +16°C° 0.4 mm 1 mps 544 mmHg 77%
    12:00 +16°C° 0.4 mm 1 mps 543 mmHg 78%
    13:00 +16°C° 0.4 mm 2 mps 542 mmHg 79%
    14:00 +16°C° 0.4 mm 2 mps 542 mmHg 81%
    15:00 +16°C° 0.4 mm 2 mps 541 mmHg 83%
    16:00 +15°C° 0.4 mm 1 mps 541 mmHg 85%
    17:00 +14°C° 0.2 mm 1 mps 540 mmHg 89%
    18:00 +12°C° 0.2 mm 1 mps 540 mmHg 93%
    19:00 +11°C° 0.2 mm 1 mps 539 mmHg 97%
    20:00 +10°C° 0.1 mm 1 mps 539 mmHg 96%
    21:00 +9°C° 0.1 mm 0 mps 540 mmHg 95%
    22:00 +9°C° 0.1 mm 0 mps 540 mmHg 94%
    23:00 +9°C° 0 mm 0 mps 540 mmHg 94%

    Tomorrow, 13 December, Friday

    Time Temperature Precipitation Wind Pressure Humidity
    00:00 +8°C° 0 mm 0 mps 539 mmHg 93%
    01:00 +8°C° 0 mm 0 mps 539 mmHg 93%
    02:00 +8°C° 0 mm 0 mps 539 mmHg 92%
    03:00 +8°C° 0 mm 0 mps 538 mmHg 92%
    04:00 +9°C° 0 mm 1 mps 538 mmHg 92%
    05:00 +9°C° 0 mm 0 mps 539 mmHg 88%
    06:00 +10°C° 0 mm 0 mps 540 mmHg 85%
    07:00 +11°C° 0 mm 0 mps 541 mmHg 82%
    08:00 +14°C° 0 mm 1 mps 542 mmHg 77%
    09:00 +15°C° 0 mm 1 mps 543 mmHg 72%
    10:00 +18°C° 0 mm 1 mps 545 mmHg 67%
    11:00 +18°C° 0.3 mm 1 mps 544 mmHg 69%
    12:00 +18°C° 0.3 mm 1 mps 543 mmHg 72%
    13:00 +17°C° 0.3 mm 2 mps 542 mmHg 75%
    14:00 +16°C° 0.4 mm 1 mps 542 mmHg 78%
    15:00 +16°C° 0.4 mm 1 mps 541 mmHg 81%
    16:00 +15°C° 0.4 mm 1 mps 541 mmHg 84%
    17:00 +14°C° 0.2 mm 1 mps 540 mmHg 88%
    18:00 +13°C° 0.2 mm 1 mps 540 mmHg 92%
    19:00 +10°C° 0.2 mm 0 mps 540 mmHg 97%
    20:00 +10°C° 0.1 mm 0 mps 540 mmHg 95%
    21:00 +9°C° 0.1 mm 0 mps 540 mmHg 94%
    22:00 +9°C° 0.1 mm 0 mps 540 mmHg 93%
    23:00 +9°C° 0 mm 0 mps 540 mmHg 92%

    Day after tomorrow, 14 December, Saturday

    Time Temperature Precipitation Wind Pressure Humidity
    00:00 +8°C° 0 mm 0 mps 539 mmHg 91%
    01:00 +9°C° 0 mm 1 mps 539 mmHg 90%
    02:00 +9°C° 0 mm 1 mps 539 mmHg 90%
    03:00 +9°C° 0 mm 1 mps 539 mmHg 89%
    04:00 +9°C° 0 mm 1 mps 539 mmHg 88%
    05:00 +9°C° 0 mm 0 mps 539 mmHg 87%
    06:00 +10°C° 0 mm 0 mps 540 mmHg 85%
    07:00 +10°C° 0 mm 0 mps 541 mmHg 83%
    08:00 +13°C° 0 mm 1 mps 542 mmHg 79%
    09:00 +15°C° 0 mm 1 mps 543 mmHg 75%
    10:00 +16°C° 0 mm 1 mps 545 mmHg 72%
    11:00 +16°C° 0.5 mm 1 mps 544 mmHg 75%
    12:00 +16°C° 0.5 mm 1 mps 543 mmHg 78%
    13:00 +16°C° 0.5 mm 1 mps 542 mmHg 82%
    14:00 +15°C° 0.8 mm 1 mps 542 mmHg 82%
    15:00 +15°C° 0.8 mm 1 mps 542 mmHg 82%
    16:00 +15°C° 0.8 mm 1 mps 541 mmHg 83%
    17:00 +14°C° 0.5 mm 1 mps 541 mmHg 87%
    18:00 +12°C° 0.5 mm 0 mps 541 mmHg 92%
    19:00 +10°C° 0.5 mm 0 mps 540 mmHg 96%
    20:00 +10°C° 0.2 mm 0 mps 541 mmHg 95%
    21:00 +10°C° 0.2 mm 0 mps 541 mmHg 95%
    22:00 +10°C° 0.2 mm 0 mps 541 mmHg 94%
    23:00 +9°C° 0 mm 0 mps 541 mmHg 94%

    15 December, Sunday

    Time Temperature Precipitation Wind Pressure Humidity
    00:00 +9°C° 0 mm 0 mps 540 mmHg 94%
    01:00 +9°C° 0 mm 0 mps 540 mmHg 93%
    02:00 +8°C° 0 mm 0 mps 540 mmHg 93%
    03:00 +8°C° 0 mm 0 mps 539 mmHg 93%
    04:00 +8°C° 0 mm 0 mps 539 mmHg 92%
    05:00 +9°C° 0 mm 0 mps 540 mmHg 90%
    06:00 +10°C° 0 mm 0 mps 541 mmHg 87%
    07:00 +11°C° 0 mm 0 mps 542 mmHg 85%
    08:00 +13°C° 0 mm 1 mps 543 mmHg 81%
    09:00 +15°C° 0 mm 1 mps 544 mmHg 77%
    10:00 +16°C° 0 mm 1 mps 545 mmHg 73%
    11:00 +16°C° 0.5 mm 1 mps 544 mmHg 77%
    12:00 +16°C° 0.5 mm 1 mps 544 mmHg 81%
    13:00 +16°C° 0.5 mm 1 mps 543 mmHg 85%
    14:00 +15°C° 0.9 mm 1 mps 542 mmHg 87%
    15:00 +15°C° 0.9 mm 1 mps 542 mmHg 89%
    16:00 +14°C° 0.9 mm 1 mps 541 mmHg 91%
    17:00 +13°C° 0.8 mm 1 mps 541 mmHg 92%
    18:00 +13°C° 0.8 mm 1 mps 541 mmHg 93%
    19:00 +12°C° 0.8 mm 1 mps 541 mmHg 94%
    20:00 +11°C° 0.1 mm 1 mps 541 mmHg 94%
    21:00 +11°C° 0.1 mm 1 mps 541 mmHg 93%
    22:00 +11°C° 0.1 mm 1 mps 541 mmHg 92%
    23:00 +10°C° 0 mm 1 mps 541 mmHg 92%

    16 December, Monday

    Time Temperature Precipitation Wind Pressure Humidity
    00:00 +10°C° 0 mm 1 mps 541 mmHg 92%
    01:00 +10°C° 0 mm 1 mps 540 mmHg 92%
    02:00 +10°C° 0 mm 1 mps 540 mmHg 92%
    03:00 +10°C° 0 mm 1 mps 540 mmHg 92%
    04:00 +9°C° 0 mm 1 mps 539 mmHg 91%
    05:00 +10°C° 0 mm 1 mps 540 mmHg 90%
    06:00 +11°C° 0 mm 1 mps 541 mmHg 88%
    07:00 +12°C° 0 mm 1 mps 542 mmHg 86%
    08:00 +13°C° 0 mm 1 mps 543 mmHg 81%
    09:00 +15°C° 0 mm 1 mps 544 mmHg 75%
    10:00 +16°C° 0 mm 1 mps 545 mmHg 70%
    11:00 +16°C° 0.4 mm 1 mps 544 mmHg 74%
    12:00 +16°C° 0.4 mm 1 mps 543 mmHg 78%
    13:00 +16°C° 0.4 mm 1 mps 543 mmHg 82%
    14:00 +15°C° 1 mm 1 mps 542 mmHg 85%
    15:00 +15°C° 1 mm 1 mps 541 mmHg 87%
    16:00 +14°C° 1 mm 1 mps 540 mmHg 90%
    17:00 +13°C° 0.2 mm 1 mps 540 mmHg 91%
    18:00 +12°C° 0.2 mm 1 mps 540 mmHg 92%
    19:00 +11°C° 0.2 mm 1 mps 540 mmHg 92%
    20:00 +11°C° 0 mm 1 mps 540 mmHg 89%
    21:00 +10°C° 0 mm 1 mps 540 mmHg 86%
    22:00 +10°C° 0 mm 1 mps 540 mmHg 84%
    23:00 +9°C° 0 mm 1 mps 540 mmHg 84%

    17 December, Tuesday

    Time Temperature Precipitation Wind Pressure Humidity
    00:00 +8°C° 0 mm 2 mps 539 mmHg 85%
    01:00 +8°C° 0 mm 2 mps 539 mmHg 86%
    02:00 +8°C° 0 mm 2 mps 539 mmHg 85%
    03:00 +8°C° 0 mm 2 mps 538 mmHg 85%
    04:00 +8°C° 0 mm 2 mps 538 mmHg 85%
    05:00 +8°C° 0 mm 2 mps 539 mmHg 83%
    06:00 +10°C° 0 mm 1 mps 540 mmHg 82%
    07:00 +11°C° 0 mm 1 mps 541 mmHg 80%
    08:00 +13°C° 0 mm 1 mps 542 mmHg 74%
    09:00 +15°C° 0 mm 2 mps 543 mmHg 69%
    10:00 +17°C° 0 mm 2 mps 544 mmHg 63%
    11:00 +18°C° 0.3 mm 1 mps 544 mmHg 67%
    12:00 +18°C° 0.3 mm 1 mps 543 mmHg 72%
    13:00 +18°C° 0.3 mm 1 mps 542 mmHg 76%
    14:00 +16°C° 0.6 mm 1 mps 541 mmHg 81%
    15:00 +15°C° 0.6 mm 1 mps 541 mmHg 85%
    16:00 +15°C° 0.6 mm 1 mps 540 mmHg 90%
    17:00 +14°C° 0.4 mm 1 mps 540 mmHg 91%
    18:00 +13°C° 0.4 mm 1 mps 540 mmHg 92%
    19:00 +12°C° 0.4 mm 1 mps 540 mmHg 93%
    20:00 +11°C° 0.3 mm 1 mps 540 mmHg 93%
    21:00 +11°C° 0.3 mm 1 mps 540 mmHg 92%
    22:00 +11°C° 0.3 mm 1 mps 540 mmHg 91%
    23:00 +10°C° 0.1 mm 1 mps 540 mmHg 91%
    Show more